Miscellaneous Local Product
Issued by NWS North Platte, NE

Home | Current Version | Previous Version | Text Only | Print | Product List | Glossary On
Versions: 1 2 3 4 5 6 7 8 9 10 11 12 13 14 15 16 17 18 19 20 21 22 23 24 25 26 27 28 29 30 31 32 33 34 35 36 37 38 39 40 41 42 43 44 45 46 47 48 49 50
000
AXUS43 KLBF 292310
MISLBF


WESTERN AND NORTH CENTRAL NEBRASKA HOURLY WEATHER ROUNDUP
NATIONAL WEATHER SERVICE NORTH PLATTE NE
600 PM CDT FRI MAY 29 2015

***STATIONS NOT REPORTING VARIABLES SUCH AS SKY/WEATHER OR
PRESSURE ARE PROVIDED BY THE NEBRASKA DEPARTMENT OF
ROADS...RAWS...AND APRS NETWORKS...AND ARE NOT UNDER
NATIONAL WEATHER SERVICE QUALITY CONTROL***

...OBSERVATIONS IN AND NEAR THE EASTERN PANHANDLE OF NEBRASKA...

CITY           SKY/WX    TMP DP  RH WIND       PRES   REMARKS
PINE RIDGE     CLOUDY    48  43  82 N6        30.28R
CHADRON        CLOUDY    48  45  89 NE13      30.30R
ALLIANCE       LGT RAIN  47  45  93 N18       30.26R
SIDNEY         CLOUDY    51  46  83 N18       30.23S
WHITECLAY        N/A     44  41  88 N8          N/A
BIG SPRINGS      N/A     57  51  81 N12         N/A
$$

...OBSERVATIONS IN NORTH CENTRAL NEBRASKA...

CITY           SKY/WX    TMP DP  RH WIND       PRES   REMARKS
VALENTINE      CLOUDY    48  45  89 N17G25    30.23R
THEDFORD       RAIN      49  48  95 N13G18    30.21S
AINSWORTH      LGT RAIN  49  48  97 N23       30.21R
O`NEILL        HVY RAIN  52  50  95 N25G35    30.13R
ORD            CLOUDY    55  50  83 N26       30.09R
BROKEN BOW     CLOUDY    57  50  77 N26G33    30.12R
BROWNLEE         N/A     51  49  93 NW23        N/A
VALENTINE NWR    N/A     48  48  99 N15G26      N/A
SPRINGVIEW       N/A     49  46  91 NW12G20     N/A
HALSEY           N/A     50  49  97 NW10G20     N/A
BREWSTER         N/A     52  51  93 W24         N/A
ROSE             N/A     49  49  99 W21         N/A
NEWPORT          N/A     49  48  99 W13         N/A
SARGENT          N/A     54  52  93 W7G14       N/A
COMSTOCK         N/A     59  54  82 E24         N/A
EWING            N/A     52  51  95 N13G23      N/A
$$

...OBSERVATIONS IN SOUTHWEST NEBRASKA AND FAR NORTHEAST COLORADO...

CITY           SKY/WX    TMP DP  RH WIND       PRES   REMARKS
WRAY           FAIR      63  49  61 N23G32    30.16F
HOLYOKE        MOCLDY    59  48  67 N24       30.19S
IMPERIAL       PTSUNNY   59  50  72 N24G32    30.15R
OGALLALA       CLOUDY    55  50  83 N20       30.19R
NORTH PLATTE   LGT RAIN  53  50  89 N18G25    30.16F
MCCOOK         PTSUNNY   63  53  70 N18G30    30.09R
LEXINGTON      RAIN      58  54  86 N20G28    30.13R
PAXTON           N/A     54  52  93 N20         N/A
GOTHENBURG       N/A     55  49  81 N12         N/A
CALLAWAY         N/A     54  52  93 N18         N/A
$$

...NORTH PLATTE AREA...

CITY           SKY/WX    TMP DP  RH WIND       PRES   REMARKS
AIRPORT        LGT RAIN  53  50  89 N18G25    30.16F
$$

...SOME WEATHER OBSERVATIONS FROM AROUND THE REGION...

CITY           SKY/WX    TMP DP  RH WIND       PRES   REMARKS
DENVER         LGT RAIN  56  46  69 N21       30.24R
LARAMIE        PTSUNNY   55  39  54 N15G23    30.30R
CHEYENNE       CLOUDY    53  42  66 N20G29    30.28R
SCOTTSBLUFF    LGT RAIN  53  49  86 N15G23    30.27R
RAPID CITY     PTSUNNY   56  41  57 N14       30.27R
PIERRE         PTSUNNY   55  41  59 N18       30.21R
WINNER         CLOUDY    52  44  74 N17       30.20R
SIOUX FALLS    CLOUDY    51  48  89 N22G28    30.03R
OMAHA          CLOUDY    78  60  53 S10       29.87F
GRAND ISLAND   MOSUNNY   66  53  63 N26G33    30.02R
KANSAS CITY    CLOUDY    70  66  87 S9        29.95F
WICHITA        CLOUDY    78  60  53 CALM      29.93S
HAYS           SUNNY     79  55  44 NW8       29.97S
LIBERAL        SUNNY     75  54  46 N13       30.06R
GOODLAND       PTSUNNY   58  54  86 N20G28    30.14R
$$



USA.gov is the U.S. government's official web portal to all federal, state and local government web resources and services.